Погода в Гранд-Форксе

США     47°55′24″N   97°01′55″W
темп.,
°C
ветер,
м/с
пор.,
м/с
влажн.,
%
обл.,
%
осадки,
мм/ч
давл.,
гПа
погр.,
м
21 октября, чт
чт2101:00+1с5967100 0.0 1022273
04:000с487579 0.0 1023231
07:00−1ссз4875100 0.0 1024266
10:00+1с4662100 0.0 1026369
13:00+5с3444100 0.0 1024792
16:00+6ссз3342100 0.0 1022918
19:00+3ссз2253100 0.0 102320
22:00+2ссв225763 0.0 102226
22 октября, пт
пт2201:00+1с2259100 0.0 102214
04:00+1ссв2259100 0.0 102125
07:000ссв226510 0.0 102129
10:00+2ссв34575 0.0 1022273
13:00+6ссв23435 0.0 1020857
16:00+8ссв33455 0.0 10191151
19:00+5ссв34615 0.0 101947
22:00+3всв347038 0.0 102087
23 октября, сб
сб2301:00+3в347668 0.0 1020124
04:00+4в257498 0.0 1020273
07:00+3в357493 0.0 1020242
10:00+4вюв46695 0.0 1020448
13:00+8вюв45515 0.0 10181098
16:00+9вюв454799 0.0 10161260
19:00+6в4857100 0.0 1016202
22:00+4вюв51164100 0.0 1017296
24 октября, вс
вс2401:00+4вюв51067100 0.0 1017298
04:00+3в51069100 0.0 1016307
07:00+3вюв51171100 0.0 1016331
10:00+4вюв51164100 0.0 1017464
13:00+7вюв5755100 0.0 1016755
16:00+9вюв5648100 0.0 10151105
19:00+7в3757100 0.0 1016255
22:00+6в3964100 0.0 1018315
25 октября, пн
пн2501:00+4вюв4973100 0.0 1019291
04:00+3вюв497898 0.0 1020258
07:00+2вюв38855 0.0 1020176
10:00+5юв6117259 0.0 1019581
13:00+9ююв795745 0.0 10181051
16:00+10ююв8126256 0.0 10151111
19:00+8юв91669100 0.0 1014985
22:00+7ююв91775100 0.0 1013924